Location: Unspecified
(0.0000°N, 0.0000°E)
Time: 00:48:55
(UTC+00:00)

S-56A Canister/Altair - Visible Passes

Search period start: 23 October 2017 00:00
Search period end: 02 November 2017 00:00
Orbit: 635 x 2498 km, 38.9° (Epoch: 22 October)

Date Brightness Start Highest point End Pass type
(mag) Time Alt. Az. Time Alt. Az. Time Alt. Az.
23 Oct 11.6 00:29:41 11° SSE 00:29:41 11° SSE 00:30:17 10° SSE visible
25 Oct 11.6 01:24:19 10° S 01:24:19 10° S 01:24:41 10° S visible
26 Oct 11.9 05:09:01 10° S 05:14:24 12° SSE 05:19:31 10° SE visible
26 Oct 10.1 19:57:33 10° NNW 19:57:38 10° NNW 19:57:38 10° NNW visible
27 Oct 12.0 04:36:51 10° S 04:40:35 11° SSE 04:44:14 10° SE visible
27 Oct 9.3 19:25:43 10° NNW 19:27:36 20° N 19:27:36 20° N visible
28 Oct 8.9 18:54:00 10° N 18:57:44 23° NE 18:57:44 23° NE visible
29 Oct 9.1 18:22:31 10° N 18:25:44 17° NE 18:28:04 14° ENE visible
29 Oct 9.7 20:23:41 10° WNW 20:25:37 24° WNW 20:25:37 24° WNW visible
30 Oct 11.7 04:58:45 10° SSW 05:09:56 24° SSE 05:19:58 10° E visible
30 Oct 8.1 19:51:25 10° NW 19:56:14 70° WSW 19:56:14 70° WSW visible
31 Oct 11.7 04:25:54 10° SSW 04:36:18 22° SSE 04:46:01 10° ESE visible
31 Oct 7.7 19:19:14 10° NW 19:24:15 90° NE 19:27:11 35° SE visible
01 Nov 11.8 03:53:12 10° S 04:02:37 19° SSE 04:11:46 10° ESE visible
01 Nov 7.5 18:47:06 10° NW 18:51:51 71° NE 18:58:25 10° SE visible
01 Nov 10.3 20:52:24 10° WSW 20:56:12 19° SW 20:56:12 19° SW visible
